N2570U KBOS-KBUF

Flight info

Callsign N2570U
Flight time 1h 13m
Altitude 43000
Route HYLND7 HYLND SYR ROC EHMAN
Aircraft C25C/M-SDE2E3FGHRWXY/LB1

Departure

Time 2026-05-05 01:32
Airport Boston Logan International Airport (KBOS)

Arrival

Time 2026-05-05 02:45
Airport Buffalo Niagara International Airport (KBUF)
Time Latitude Longitude Altitude Speed Heading
2026-05-05 01:07 42.37399 -71.02074 19 ft 0 kts 135°
2026-05-05 01:26 42.37385 -71.02055 21 ft 0 kts 135°
2026-05-05 01:26 42.37384 -71.02043 21 ft 3 kts 73°
2026-05-05 01:27 42.37420 -71.02018 19 ft 9 kts 21°
2026-05-05 01:27 42.37405 -71.01961 19 ft 10 kts 141°
2026-05-05 01:27 42.37344 -71.01885 22 ft 13 kts 135°
2026-05-05 01:27 42.37271 -71.01786 22 ft 17 kts 134°
2026-05-05 01:28 42.37188 -71.01677 22 ft 17 kts 136°
2026-05-05 01:28 42.37095 -71.01552 22 ft 21 kts 136°
2026-05-05 01:28 42.36994 -71.01416 19 ft 19 kts 134°
2026-05-05 01:28 42.36920 -71.01302 20 ft 16 kts 106°
2026-05-05 01:29 42.36943 -71.01169 18 ft 16 kts 63°
2026-05-05 01:29 42.37020 -71.01087 17 ft 16 kts 25°
2026-05-05 01:29 42.37136 -71.01010 15 ft 18 kts 26°
2026-05-05 01:29 42.37255 -71.00933 15 ft 19 kts 25°
2026-05-05 01:30 42.37369 -71.00872 15 ft 18 kts 20°
2026-05-05 01:30 42.37496 -71.00810 17 ft 20 kts 20°
2026-05-05 01:30 42.37624 -71.00748 19 ft 17 kts 19°
2026-05-05 01:30 42.37737 -71.00693 22 ft 17 kts 20°
2026-05-05 01:31 42.37830 -71.00637 23 ft 16 kts 51°
2026-05-05 01:31 42.37809 -71.00495 20 ft 17 kts 140°
2026-05-05 01:31 42.37666 -71.00534 20 ft 44 kts 199°
2026-05-05 01:31 42.37036 -71.00868 189 ft 140 kts 201°
2026-05-05 01:32 42.35989 -71.01386 839 ft 178 kts 200°
2026-05-05 01:32 42.34896 -71.01823 2643 ft 160 kts 197°
2026-05-05 01:32 42.33717 -71.01330 3720 ft 207 kts 149°
2026-05-05 01:32 42.32619 -70.99849 4678 ft 242 kts 134°
2026-05-05 01:33 42.31571 -70.97802 5042 ft 294 kts 123°
2026-05-05 01:33 42.31051 -70.95047 5035 ft 301 kts 88°
2026-05-05 01:33 42.31491 -70.92350 5047 ft 289 kts 72°
2026-05-05 01:33 42.32016 -70.89839 5893 ft 272 kts 75°
2026-05-05 01:34 42.32428 -70.87479 7758 ft 244 kts 76°
2026-05-05 01:34 42.32732 -70.85333 9520 ft 229 kts 77°
2026-05-05 01:34 42.33048 -70.83185 10623 ft 237 kts 77°
2026-05-05 01:34 42.33375 -70.80981 11743 ft 242 kts 77°
2026-05-05 01:35 42.33715 -70.78717 12825 ft 250 kts 78°
2026-05-05 01:35 42.34242 -70.76446 13751 ft 263 kts 55°
2026-05-05 01:35 42.35655 -70.74732 14011 ft 293 kts 23°
2026-05-05 01:35 42.37693 -70.73731 14029 ft 331 kts 12°
2026-05-05 01:36 42.40046 -70.72907 14034 ft 366 kts
2026-05-05 01:36 42.42492 -70.72038 14012 ft 352 kts
2026-05-05 01:36 42.44831 -70.71830 14010 ft 334 kts 349°
2026-05-05 01:36 42.47124 -70.72571 14008 ft 345 kts 333°
2026-05-05 01:37 42.49309 -70.74031 14173 ft 353 kts 331°
2026-05-05 01:37 42.51507 -70.75336 15219 ft 330 kts 330°
2026-05-05 01:37 42.53280 -70.77005 16644 ft 295 kts 312°
2026-05-05 01:37 42.54543 -70.78984 18166 ft 262 kts 299°
2026-05-05 01:38 42.55470 -70.80956 19499 ft 237 kts 301°
2026-05-05 01:38 42.56397 -70.82809 20502 ft 238 kts 300°
2026-05-05 01:38 42.57317 -70.84690 21568 ft 240 kts 301°
2026-05-05 01:38 42.58242 -70.86596 22645 ft 243 kts 301°
2026-05-05 01:39 42.59184 -70.88521 23653 ft 247 kts 301°
2026-05-05 01:39 42.59813 -70.89817 24227 ft 249 kts 302°
2026-05-05 01:39 42.60775 -70.91782 25085 ft 251 kts 302°
2026-05-05 01:39 42.61741 -70.93771 25919 ft 254 kts 302°
2026-05-05 01:40 42.62720 -70.95779 26745 ft 256 kts 302°
2026-05-05 01:40 42.63546 -70.98775 27794 ft 262 kts 282°
2026-05-05 01:40 42.63751 -71.00433 28318 ft 264 kts 283°
2026-05-05 01:40 42.64137 -71.03686 29496 ft 262 kts 283°
2026-05-05 01:41 42.64337 -71.05334 30074 ft 261 kts 283°
2026-05-05 01:41 42.64635 -71.07759 30784 ft 260 kts 284°
2026-05-05 01:41 42.64939 -71.10171 31465 ft 259 kts 284°
2026-05-05 01:41 42.65234 -71.12579 32134 ft 257 kts 285°
2026-05-05 01:42 42.65529 -71.14971 32790 ft 257 kts 285°
2026-05-05 01:42 42.65822 -71.17357 33422 ft 255 kts 285°
2026-05-05 01:42 42.66112 -71.19735 34019 ft 254 kts 285°
2026-05-05 01:42 42.66404 -71.22105 34496 ft 255 kts 285°
2026-05-05 01:43 42.66689 -71.24451 34954 ft 256 kts 284°
2026-05-05 01:43 42.66981 -71.26835 35407 ft 256 kts 283°
2026-05-05 01:43 42.67273 -71.29230 35840 ft 257 kts 283°
2026-05-05 01:43 42.67563 -71.31635 36306 ft 258 kts 282°
2026-05-05 01:44 42.67855 -71.34045 36789 ft 259 kts 282°
2026-05-05 01:44 42.68151 -71.36460 37281 ft 259 kts 281°
2026-05-05 01:44 42.68441 -71.38881 37778 ft 260 kts 280°
2026-05-05 01:44 42.68732 -71.41305 38294 ft 260 kts 279°
2026-05-05 01:45 42.69027 -71.43731 38729 ft 261 kts 279°
2026-05-05 01:45 42.69317 -71.46167 39115 ft 261 kts 279°
2026-05-05 01:45 42.69611 -71.48603 39509 ft 262 kts 279°
2026-05-05 01:45 42.69903 -71.51045 39904 ft 262 kts 279°
2026-05-05 01:46 42.70194 -71.53494 40302 ft 263 kts 279°
2026-05-05 01:46 42.70489 -71.55946 40700 ft 263 kts 278°
2026-05-05 01:46 42.70779 -71.58402 41088 ft 263 kts 279°
2026-05-05 01:46 42.71072 -71.60863 41474 ft 264 kts 278°
2026-05-05 01:47 42.71366 -71.63325 41850 ft 264 kts 278°
2026-05-05 01:47 42.71655 -71.65795 42215 ft 265 kts 278°
2026-05-05 01:47 42.71949 -71.68270 42571 ft 265 kts 278°
2026-05-05 01:47 42.72243 -71.70760 42794 ft 270 kts 278°
2026-05-05 01:48 42.72543 -71.73332 42850 ft 280 kts 278°
2026-05-05 01:48 42.72859 -71.76001 42887 ft 291 kts 278°
2026-05-05 01:48 42.73183 -71.78776 42888 ft 302 kts 278°
2026-05-05 01:48 42.73519 -71.81649 42891 ft 313 kts 278°
2026-05-05 01:49 42.74221 -71.87676 42898 ft 332 kts 278°
2026-05-05 01:49 42.74959 -71.94033 42900 ft 349 kts 278°
2026-05-05 01:50 42.75728 -72.00685 42898 ft 363 kts 278°
2026-05-05 01:50 42.76513 -72.07531 42898 ft 374 kts 278°
2026-05-05 01:51 42.77320 -72.14613 42894 ft 383 kts 278°
2026-05-05 01:51 42.78142 -72.21855 42888 ft 391 kts 278°
2026-05-05 01:52 42.78973 -72.29224 42879 ft 397 kts 278°
2026-05-05 01:52 42.79811 -72.36701 42877 ft 402 kts 278°
2026-05-05 01:53 42.80653 -72.44260 42871 ft 406 kts 278°
2026-05-05 01:53 42.81499 -72.51892 42861 ft 409 kts 278°
2026-05-05 01:54 42.82344 -72.59573 42848 ft 411 kts 278°
2026-05-05 01:54 42.83189 -72.67303 42844 ft 413 kts 278°
2026-05-05 01:55 42.84031 -72.75055 42846 ft 411 kts 278°
2026-05-05 01:55 42.84854 -72.82679 42836 ft 402 kts 278°
2026-05-05 01:56 42.85655 -72.90146 42826 ft 395 kts 278°
2026-05-05 01:56 42.86441 -72.97515 42833 ft 393 kts 278°
2026-05-05 01:57 42.87223 -73.04900 42827 ft 394 kts 278°
2026-05-05 01:57 42.87997 -73.12245 42820 ft 395 kts 278°
2026-05-05 01:58 42.88770 -73.19656 42842 ft 395 kts 278°
2026-05-05 01:58 42.89545 -73.27078 42826 ft 395 kts 278°
2026-05-05 01:59 42.90308 -73.34503 42825 ft 396 kts 277°
2026-05-05 01:59 42.91072 -73.41938 42822 ft 396 kts 277°
2026-05-05 02:00 42.91829 -73.49382 42828 ft 396 kts 277°
2026-05-05 02:00 42.92582 -73.56830 42825 ft 396 kts 277°
2026-05-05 02:01 42.93334 -73.64287 42820 ft 397 kts 277°
2026-05-05 02:01 42.94079 -73.71747 42804 ft 397 kts 277°
2026-05-05 02:02 42.94818 -73.79203 42802 ft 396 kts 277°
2026-05-05 02:02 42.95551 -73.86660 42800 ft 396 kts 277°
2026-05-05 02:03 42.96281 -73.94118 42804 ft 396 kts 277°
2026-05-05 02:03 42.97006 -74.01576 42801 ft 396 kts 277°
2026-05-05 02:04 42.97727 -74.09032 42797 ft 396 kts 277°
2026-05-05 02:04 42.98441 -74.16486 42797 ft 395 kts 277°
2026-05-05 02:05 42.99148 -74.23933 42795 ft 395 kts 277°
2026-05-05 02:05 42.99849 -74.31332 42795 ft 395 kts 277°
2026-05-05 02:06 43.00547 -74.38783 42790 ft 395 kts 277°
2026-05-05 02:06 43.01241 -74.46233 42794 ft 395 kts 277°
2026-05-05 02:07 43.01929 -74.53682 42787 ft 395 kts 277°
2026-05-05 02:07 43.02615 -74.61137 42787 ft 395 kts 277°
2026-05-05 02:08 43.03295 -74.68591 42784 ft 395 kts 277°
2026-05-05 02:08 43.03969 -74.76051 42784 ft 395 kts 276°
2026-05-05 02:09 43.04639 -74.83515 42785 ft 395 kts 276°
2026-05-05 02:09 43.05305 -74.90983 42781 ft 395 kts 276°
2026-05-05 02:10 43.05965 -74.98447 42790 ft 395 kts 276°
2026-05-05 02:10 43.06618 -75.05863 42788 ft 395 kts 276°
2026-05-05 02:11 43.07268 -75.13335 42776 ft 395 kts 276°
2026-05-05 02:11 43.07912 -75.20805 42778 ft 395 kts 276°
2026-05-05 02:12 43.08872 -75.32011 42773 ft 395 kts 276°
2026-05-05 02:13 43.09505 -75.39478 42777 ft 395 kts 276°
2026-05-05 02:13 43.10135 -75.46943 42780 ft 395 kts 276°
2026-05-05 02:14 43.10758 -75.54417 42776 ft 395 kts 276°
2026-05-05 02:14 43.11373 -75.61832 42765 ft 395 kts 276°
2026-05-05 02:15 43.11984 -75.69295 42754 ft 394 kts 276°
2026-05-05 02:15 43.12592 -75.76753 42748 ft 394 kts 276°
2026-05-05 02:16 43.13192 -75.84206 42737 ft 394 kts 276°
2026-05-05 02:16 43.13778 -75.91666 42733 ft 394 kts 275°
2026-05-05 02:17 43.14343 -75.99072 42033 ft 390 kts 275°
2026-05-05 02:17 43.14617 -76.02772 41346 ft 390 kts 275°
2026-05-05 02:17 43.14890 -76.06466 40715 ft 389 kts 275°
2026-05-05 02:17 43.15155 -76.10146 40083 ft 388 kts 275°
2026-05-05 02:18 43.15417 -76.13812 39451 ft 386 kts 275°
2026-05-05 02:18 43.15673 -76.17466 38815 ft 384 kts 275°
2026-05-05 02:18 43.15926 -76.21098 38092 ft 383 kts 275°
2026-05-05 02:18 43.16171 -76.24724 37173 ft 382 kts 275°
2026-05-05 02:19 43.16415 -76.28355 36207 ft 383 kts 276°
2026-05-05 02:19 43.16653 -76.31995 35237 ft 384 kts 276°
2026-05-05 02:19 43.16887 -76.35593 34261 ft 385 kts 276°
2026-05-05 02:19 43.17119 -76.39295 33181 ft 386 kts 276°
2026-05-05 02:20 43.17350 -76.42969 31940 ft 388 kts 276°
2026-05-05 02:20 43.17576 -76.46623 30695 ft 392 kts 275°
2026-05-05 02:20 43.17871 -76.50349 29336 ft 395 kts 275°
2026-05-05 02:20 43.17947 -76.54125 27882 ft 397 kts 270°
2026-05-05 02:21 43.17854 -76.57912 26505 ft 398 kts 267°
2026-05-05 02:21 43.17653 -76.61685 25740 ft 397 kts 266°
2026-05-05 02:21 43.17421 -76.65409 25471 ft 389 kts 265°
2026-05-05 02:21 43.17168 -76.69097 24892 ft 388 kts 265°
2026-05-05 02:22 43.16912 -76.72763 24442 ft 386 kts 265°
2026-05-05 02:22 43.16654 -76.76406 24127 ft 382 kts 265°
2026-05-05 02:22 43.16397 -76.80027 23803 ft 379 kts 265°
2026-05-05 02:22 43.16147 -76.83607 23736 ft 376 kts 265°
2026-05-05 02:23 43.15897 -76.87158 23671 ft 374 kts 265°
2026-05-05 02:23 43.15657 -76.90705 23532 ft 373 kts 265°
2026-05-05 02:23 43.15419 -76.94255 23298 ft 375 kts 265°
2026-05-05 02:23 43.15189 -76.97817 23028 ft 376 kts 265°
2026-05-05 02:24 43.14957 -77.01388 22759 ft 377 kts 265°
2026-05-05 02:24 43.14731 -77.04973 22487 ft 378 kts 265°
2026-05-05 02:24 43.14504 -77.08561 22217 ft 379 kts 265°
2026-05-05 02:24 43.14285 -77.12161 21952 ft 379 kts 265°
2026-05-05 02:25 43.14067 -77.15702 21688 ft 367 kts 265°
2026-05-05 02:25 43.13865 -77.19139 21424 ft 358 kts 265°
2026-05-05 02:25 43.13667 -77.22501 21161 ft 351 kts 265°
2026-05-05 02:25 43.13479 -77.25803 20895 ft 346 kts 265°
2026-05-05 02:26 43.13302 -77.29064 20641 ft 341 kts 265°
2026-05-05 02:26 43.13128 -77.32287 20386 ft 338 kts 265°
2026-05-05 02:26 43.12961 -77.35494 20019 ft 338 kts 265°
2026-05-05 02:26 43.12797 -77.38655 19518 ft 335 kts 265°
2026-05-05 02:27 43.12645 -77.41815 19033 ft 331 kts 265°
2026-05-05 02:27 43.12494 -77.44947 18556 ft 328 kts 266°
2026-05-05 02:27 43.12353 -77.48050 18087 ft 326 kts 265°
2026-05-05 02:27 43.12215 -77.51138 17336 ft 323 kts 266°
2026-05-05 02:28 43.12081 -77.54171 16544 ft 316 kts 265°
2026-05-05 02:28 43.11948 -77.57152 15778 ft 311 kts 266°
2026-05-05 02:28 43.11881 -77.60087 15045 ft 306 kts 269°
2026-05-05 02:28 43.11924 -77.62047 14551 ft 304 kts 271°
2026-05-05 02:29 43.12010 -77.64915 13829 ft 300 kts 271°
2026-05-05 02:29 43.12116 -77.67756 13073 ft 298 kts 272°
2026-05-05 02:29 43.12219 -77.70573 12289 ft 295 kts 272°
2026-05-05 02:29 43.12333 -77.73357 11532 ft 294 kts 272°
2026-05-05 02:30 43.12443 -77.76142 10786 ft 292 kts 272°
2026-05-05 02:30 43.12564 -77.78910 10059 ft 291 kts 272°
2026-05-05 02:30 43.12682 -77.81651 9326 ft 294 kts 271°
2026-05-05 02:30 43.12792 -77.84416 9028 ft 284 kts 271°
2026-05-05 02:31 43.12894 -77.87041 9025 ft 272 kts 271°
2026-05-05 02:31 43.12996 -77.89667 9022 ft 280 kts 271°
2026-05-05 02:31 43.13101 -77.92369 9023 ft 287 kts 271°
2026-05-05 02:31 43.13202 -77.95122 9025 ft 292 kts 271°
2026-05-05 02:32 43.13307 -77.97900 9027 ft 284 kts 271°
2026-05-05 02:32 43.13417 -78.00469 9022 ft 258 kts 271°
2026-05-05 02:32 43.13525 -78.02835 9010 ft 240 kts 271°
2026-05-05 02:32 43.13630 -78.05064 9008 ft 230 kts 271°
2026-05-05 02:33 43.13740 -78.07217 9010 ft 223 kts 271°
2026-05-05 02:33 43.13840 -78.09310 9014 ft 218 kts 271°
2026-05-05 02:33 43.13946 -78.11353 9004 ft 213 kts 271°
2026-05-05 02:33 43.14056 -78.13363 9004 ft 210 kts 271°
2026-05-05 02:34 43.14157 -78.15343 9006 ft 207 kts 271°
2026-05-05 02:34 43.14263 -78.17294 9003 ft 203 kts 271°
2026-05-05 02:34 43.14370 -78.19209 9003 ft 200 kts 271°
2026-05-05 02:34 43.14473 -78.21099 9009 ft 198 kts 271°
2026-05-05 02:35 43.14555 -78.22972 8985 ft 196 kts 269°
2026-05-05 02:35 43.14584 -78.24855 8909 ft 196 kts 268°
2026-05-05 02:35 43.14462 -78.26701 8774 ft 194 kts 259°
2026-05-05 02:35 43.14268 -78.28486 8297 ft 193 kts 259°
2026-05-05 02:36 43.14064 -78.30338 7775 ft 194 kts 259°
2026-05-05 02:36 43.13882 -78.32169 7265 ft 194 kts 259°
2026-05-05 02:36 43.13705 -78.33993 6793 ft 193 kts 259°
2026-05-05 02:36 43.13547 -78.35791 6323 ft 192 kts 259°
2026-05-05 02:37 43.13404 -78.37613 5841 ft 192 kts 259°
2026-05-05 02:37 43.13264 -78.39423 5389 ft 190 kts 259°
2026-05-05 02:37 43.13139 -78.41211 4973 ft 188 kts 259°
2026-05-05 02:37 43.13014 -78.42986 4556 ft 187 kts 259°
2026-05-05 02:38 43.12863 -78.44738 4174 ft 183 kts 256°
2026-05-05 02:38 43.12656 -78.46406 4045 ft 174 kts 255°
2026-05-05 02:38 43.12314 -78.47997 3729 ft 177 kts 243°
2026-05-05 02:38 43.11695 -78.49444 3703 ft 172 kts 237°
2026-05-05 02:39 43.11058 -78.50809 3955 ft 170 kts 232°
2026-05-05 02:39 43.10294 -78.52051 4107 ft 172 kts 229°
2026-05-05 02:39 43.09456 -78.53264 4112 ft 177 kts 225°
2026-05-05 02:39 43.08556 -78.54407 4211 ft 177 kts 223°
2026-05-05 02:40 43.07635 -78.55491 4331 ft 174 kts 222°
2026-05-05 02:40 43.06707 -78.56568 4157 ft 175 kts 222°
2026-05-05 02:40 43.05781 -78.57646 3919 ft 176 kts 222°
2026-05-05 02:40 43.04852 -78.58745 3680 ft 175 kts 224°
2026-05-05 02:41 43.03955 -78.59875 3472 ft 174 kts 225°
2026-05-05 02:41 43.03109 -78.61025 3216 ft 174 kts 226°
2026-05-05 02:41 43.02278 -78.62204 2982 ft 165 kts 226°
2026-05-05 02:41 43.01506 -78.63239 2870 ft 148 kts 224°
2026-05-05 02:42 43.00814 -78.64163 2536 ft 122 kts 225°
2026-05-05 02:42 43.00257 -78.64871 2282 ft 102 kts 223°
2026-05-05 02:42 42.99732 -78.65489 2048 ft 98 kts 223°
2026-05-05 02:42 42.99208 -78.66161 1806 ft 112 kts 225°
2026-05-05 02:43 42.98638 -78.66994 1752 ft 127 kts 225°
2026-05-05 02:43 42.97972 -78.67864 1689 ft 138 kts 222°
2026-05-05 02:43 42.97281 -78.68743 1582 ft 131 kts 223°
2026-05-05 02:43 42.96649 -78.69561 1346 ft 122 kts 226°
2026-05-05 02:44 42.96033 -78.70360 1183 ft 125 kts 226°
2026-05-05 02:44 42.95387 -78.71193 998 ft 130 kts 228°
2026-05-05 02:44 42.94744 -78.72051 765 ft 128 kts 227°
2026-05-05 02:44 42.94203 -78.72754 721 ft 89 kts 224°
2026-05-05 02:45 42.93822 -78.73252 721 ft 58 kts 223°
2026-05-05 02:45 42.93651 -78.73470 718 ft 18 kts 223°
2026-05-05 02:45 42.93567 -78.73586 717 ft 17 kts 225°
2026-05-05 02:45 42.93468 -78.73654 715 ft 14 kts 179°
2026-05-05 02:46 42.93407 -78.73640 715 ft 0 kts 139°
2026-05-05 02:46 42.93390 -78.73576 714 ft 10 kts 56°
2026-05-05 02:47 42.93483 -78.73488 717 ft 18 kts 44°
2026-05-05 02:47 42.93570 -78.73374 718 ft 15 kts 44°
2026-05-05 02:47 42.93669 -78.73242 716 ft 18 kts 44°
2026-05-05 02:47 42.93765 -78.73116 718 ft 17 kts 43°
2026-05-05 02:48 42.93844 -78.73066 717 ft 13 kts 315°
2026-05-05 02:48 42.93837 -78.73205 720 ft 18 kts 252°
2026-05-05 02:48 42.93801 -78.73348 718 ft 17 kts 303°
2026-05-05 02:48 42.93895 -78.73478 720 ft 18 kts 359°
2026-05-05 02:49 42.94039 -78.73483 718 ft 21 kts 355°
2026-05-05 02:49 42.94187 -78.73497 715 ft 20 kts 355°
2026-05-05 02:49 42.94287 -78.73502 714 ft 19 kts 22°
2026-05-05 02:49 42.94421 -78.73494 714 ft 21 kts 360°
2026-05-05 02:50 42.94569 -78.73498 716 ft 21 kts 359°
2026-05-05 02:50 42.94631 -78.73495 717 ft 2 kts 358°
2026-05-05 02:50 42.94633 -78.73495 716 ft 0 kts 358°